Home > Weather > Tallinn > Past weeks

Flag for Estonia Past Weather in Tallinn, Estonia — Yesterday and Last 2 Weeks

Now
70 °F

Sunny.


Feels Like: 70 °F
Forecast: 63 / 73 °F
Wind: 2 mph from North

Location: Tallinn

Current Time: Jul 26, 2016 at 9:38:26 AM

Latest Report: Jul 26, 2016 at 8:50 AM


Visibility: 10 mi

Pressure: 30.04 "Hg

Humidity: 78%

Dew Point: 63 °F

Location of TallinnLocation

Past Weather in Tallinn — Graph

°F

Tallinn Temperature Yesterday

Maximum temperature yesterday: 73 °F (at 1:20 PM)
Minimum temperature yesterday: 55 °F (at 4:50 AM)
Average temperature yesterday: 65 °F

High & Low Weather Summary for the Past Weeks

 TemperatureHumidityPressure
High73 °F (Jul 24, 4:50 PM)100% (Jul 11, 6:20 PM)30.15 "Hg (Jul 11, 6:20 PM)
Low55 °F (Jul 14, 2:20 AM)46% (Jul 18, 2:20 PM)29.50 "Hg (Jul 12, 3:50 AM)
Average64 °F81%29.89 "Hg
* Reported Jul 11 8:20 AM — Jul 26 8:20 AM, Tallinn, Weather by CustomWeather, © 2016

Note: Actual official high and low records may vary slightly from our data, if they occured in-between our weather recording intervals... More about our weather records

Advertising

Tallinn Weather History for the Previous 24 Hours

Scroll right to see more
 ConditionsComfort  
Time TempWeatherWind HumidityBarometerVisibility
8:20 AM
Tue, Jul 26
68 °FSunny.No wind83%30.04 "Hg10 mi
7:50 AM68 °FSunny.No wind83%30.04 "Hg10 mi
7:20 AM66 °FSunny.2 mph83%30.04 "Hg10 mi
6:50 AM63 °FSunny.No wind94%30.04 "Hg10 mi
6:20 AM59 °FSunny.No wind100%30.04 "Hg10 mi
5:50 AM57 °FClear.No wind100%30.04 "Hg10 mi
5:20 AM57 °FFog.No wind100%30.04 "HgN/A
4:50 AM59 °FFog.No wind94%30.04 "HgN/A
4:20 AM59 °FFog.No wind94%30.04 "HgN/A
3:50 AM59 °FPassing clouds.1 mph94%30.04 "HgN/A
3:20 AM59 °FClear.No wind94%30.04 "Hg10 mi
2:50 AM59 °FClear.2 mph94%30.04 "Hg10 mi
2:20 AM59 °FClear.No wind100%30.04 "Hg10 mi
1:50 AM59 °FClear.No wind94%30.07 "Hg10 mi
1:20 AM61 °FPassing clouds.No wind94%30.07 "HgN/A
12:50 AM61 °FPassing clouds.No wind94%30.07 "HgN/A
12:20 AM61 °FPassing clouds.No wind94%30.07 "HgN/A
11:50 PM
Mon, Jul 25
61 °FPassing clouds.No wind94%30.07 "HgN/A
11:20 PM63 °FClear.No wind88%30.07 "Hg10 mi
10:50 PM63 °FSunny.3 mph88%30.07 "Hg10 mi
10:20 PM64 °FSunny.2 mph88%30.07 "Hg10 mi
9:50 PM66 °FSunny.2 mph83%30.07 "Hg10 mi
9:20 PM68 °FSunny.3 mph78%30.07 "Hg10 mi
8:50 PM68 °FSunny.6 mph78%30.07 "Hg10 mi
8:20 PM70 °FSunny.5 mph69%30.07 "Hg10 mi
7:50 PM70 °FSunny.7 mph69%30.07 "Hg10 mi
7:20 PM70 °FSunny.8 mph73%30.07 "Hg10 mi
6:50 PM72 °FPassing clouds.7 mph65%30.07 "HgN/A
6:20 PM72 °FPassing clouds.8 mph65%30.07 "HgN/A
5:50 PM72 °FPassing clouds.9 mph65%30.07 "HgN/A
5:20 PM72 °FPassing clouds.8 mph65%30.07 "HgN/A
4:50 PM72 °FPassing clouds.8 mph69%30.07 "HgN/A
4:20 PM72 °FPassing clouds.8 mph69%30.07 "HgN/A
3:50 PM72 °FPassing clouds.7 mph69%30.09 "HgN/A
3:20 PM72 °FScattered clouds.8 mph65%30.09 "HgN/A
2:50 PM72 °FScattered clouds.9 mph69%30.09 "HgN/A
2:20 PM70 °FPartly sunny.9 mph73%30.09 "HgN/A
1:50 PM70 °FScattered clouds.8 mph73%30.09 "HgN/A
1:20 PM73 °FPassing clouds.6 mph65%30.09 "HgN/A
12:50 PM72 °FPassing clouds.7 mph65%30.09 "HgN/A
12:20 PM72 °FPassing clouds.8 mph65%30.12 "HgN/A
11:50 AM70 °FPassing clouds.8 mph69%30.12 "HgN/A
11:20 AM70 °FPassing clouds.8 mph69%30.12 "HgN/A
10:50 AM70 °FPassing clouds.7 mph69%30.12 "HgN/A
10:20 AM70 °FPassing clouds.6 mph69%30.12 "HgN/A
9:50 AM68 °FSunny.7 mph73%30.12 "Hg10 mi
9:20 AM68 °FPassing clouds.6 mph78%30.12 "HgN/A
Weather by CustomWeather, © 2016

See weather overviewHow to use our weather pages